User: anonymous   Login
Location: Unspecified
(0.0000°N, 0.0000°E)
Time: 17:26:04
(UTC+00:00)
Language:

TURKSAT 3U - Orbit

View from above orbital plane
View from above orbital plane
View from above satellite
View from above satellite

Ground track
Ground track

The orbit data is extracted from the following two-line orbital elements,

1 39152U 13018C   18116.28635145  .00000237  00000-0  37797-4 0  9993
2 39152  97.9295 205.1991 0018322 106.4818 253.8409 14.80486145269890
Epoch (UTC): 26 April 2018 06:52:20
Eccentricity: 0.0018322
inclination: 97.9295°
perigee height: 615 km
apogee height: 640 km
right ascension of ascending node: 205.1991°
argument of perigee: 106.4818°
revolutions per day: 14.80486145
mean anomaly at epoch: 253.8409°
orbit number at epoch: 26989

The dashed part of the orbit path shows where the satellite is in the earth's shadow,  

DLR